Location: České Budějovice
(48.9747°N, 14.4743°E)
Time: 04:31:08
(UTC+01:00)

ISS - Visible Passes

Search period start: 23 January 2021 00:00
Search period end: 02 February 2021 00:00
Orbit: 418 x 421 km, 51.6° (Epoch: 23 January)

Date Brightness Start Highest point End Pass type
(mag) Time Alt. Az. Time Alt. Az. Time Alt. Az.
23 Jan -3.5 17:56:31 10° SW 17:59:50 56° SSE 18:01:49 22° E visible
23 Jan -1.3 19:33:21 10° W 19:34:47 23° W 19:34:47 23° W visible
24 Jan -3.7 18:45:55 10° W 18:49:17 65° NNW 18:49:24 64° N visible
25 Jan -3.7 17:58:29 10° WSW 18:01:52 80° NNW 18:03:59 21° ENE visible
25 Jan -1.2 19:35:35 10° WNW 19:36:57 22° WNW 19:36:57 22° WNW visible
26 Jan -3.4 18:48:08 10° W 18:51:28 52° N 18:51:31 52° N visible
27 Jan -3.4 18:00:40 10° W 18:04:00 56° N 18:06:04 21° ENE visible
27 Jan -1.2 19:37:43 10° WNW 19:39:03 22° WNW 19:39:03 22° WNW visible
28 Jan -3.5 18:50:17 10° WNW 18:53:36 55° N 18:53:36 55° N visible
29 Jan -3.4 18:02:49 10° WNW 18:06:09 52° N 18:08:10 21° ENE visible
29 Jan -1.3 19:39:44 10° WNW 19:41:09 23° WNW 19:41:09 23° WNW visible
30 Jan -3.9 18:52:18 10° WNW 18:55:42 77° NNE 18:55:45 76° NNE visible
31 Jan -3.6 18:04:51 10° WNW 18:08:13 63° NNE 18:10:25 20° E visible
31 Jan -1.4 19:41:46 10° WNW 19:43:23 24° W 19:43:23 24° W visible
01 Feb -3.4 18:54:15 10° WNW 18:57:36 60° SSW 18:58:07 51° SSE visible
